sat.trackr.live / text

‹ back to catalog

YAOGAN-42 02

NORAD 59557 · 2024-075A

PAYLOAD ACTIVE UNKNOWN

§ Identity

Operator
Country
PRC
Launch date
2024-04-20
Launch site
XICLF
Launch vehicle
Mass (kg)
RCS (m²)

External: N2YO · Heavens-Above · Gunter

§ Orbital elements

Epoch: 2026-05-25T03:58:25.065696Z

Period
94.55 min
Inclination
35.0009°
Eccentricity
0.0006413
Mean motion
15.23043096 rev/d
Perigee alt
492.3 km
Apogee alt
501.1 km
Semi-major
6,874.8 km
B*
3.5561e-4
RAAN
54.3805°
Arg perigee
313.4599°
Mean anomaly
46.5582°
Rev number
11,657

§ Raw data

YAOGAN-42 021 59557U 24075A   26145.16556789  .00008555  00000+0  35561-3 0  99992 59557  35.0009  54.3805 0006413 313.4599  46.5582 15.23043096116576

JSON: /api/v1/satellites/59557 · /tle

For live sub-satellite position, see the globe view (requires WebGL).

§ Visibility from observer

Set your observer location to see the next 7 days of passes ≥ 10°. The values pass through the URL so the page stays shareable.

No JS? Fill the form by hand. The geolocation button needs JavaScript.